| time (UTC) | temp F | wind direction | speed MPH | gust MPH | rain 1hr in | rain 24hr in | rain mn in | humidity % | barometer mb |
| 20260504200100 | 66 | 212 | 1.0 | 7.0 | 0.00 | 0.00 | 0.00 | ||
| 20260504193041 | 65 | 249 | 4.0 | 7.0 | 0.00 | 0.00 | 0.00 | ||
| 20260504190105 | 65 | 327 | 1.0 | 6.0 | 0.00 | 0.00 | 0.00 | ||
| 20260504183047 | 65 | 331 | 0.0 | 6.0 | 0.00 | 0.00 | 0.00 | ||
| 20260504173043 | 62 | 230 | 2.0 | 6.0 | 0.00 | 0.00 | 0.00 | ||
| 20260504170113 | 60 | 249 | 1.0 | 5.0 | 0.00 | 0.00 | 0.00 | ||
| 20260504090106 | 55 | 283 | 0.0 | 1.0 | 0.00 | 0.00 | 0.00 | ||
| 20260504043033 | 62 | 282 | 0.0 | 1.0 | 0.00 | 0.00 | 0.00 | ||
| 20260504033042 | 66 | 291 | 0.0 | 1.0 | 0.00 | 0.00 | 0.00 | ||
| 20260504030111 | 68 | 292 | 0.0 | 1.0 | 0.00 | 0.00 | 0.00 | ||
| 20260504023051 | 70 | 252 | 0.0 | 3.0 | 0.00 | 0.00 | 0.00 | ||
| 20260504013041 | 72 | 279 | 1.0 | 3.0 | 0.00 | 0.00 | 0.00 | ||
| 20260504010051 | 74 | 60 | 1.0 | 4.0 | 0.00 | 0.00 | 0.00 | ||
| 20260504003053 | 76 | 202 | 0.0 | 4.0 | 0.00 | 0.00 | 0.00 | ||
| 20260503233045 | 80 | 287 | 1.0 | 6.0 | 0.00 | 0.00 | 0.00 | ||
| 20260503230111 | 83 | 304 | 1.0 | 4.0 | 0.00 | 0.00 | 0.00 | ||
| 20260503223051 | 85 | 295 | 1.0 | 4.0 | 0.00 | 0.00 | 0.00 | ||
| 20260503220101 | 84 | 233 | 3.0 | 6.0 | 0.00 | 0.00 | 0.00 | ||
| 20260503213042 | 85 | 298 | 0.0 | 5.0 | 0.00 | 0.00 | 0.00 | ||
| 20260503210052 | 84 | 107 | 3.0 | 6.0 | 0.00 | 0.00 | 0.00 |